LAZY411 LOWI-EHAM

Flight info

Callsign LAZY411
Flight time N/A
Altitude 38000
Route KPT L608 BUB Y28 HELEN
Aircraft B738/M-SDGIJ1LRWY/SB1

Departure

Time 2026-05-06 05:55
Airport Innsbruck Airport (LOWI)

Arrival

Time N/A
Airport Amsterdam Airport Schiphol (EHAM)
Time Latitude Longitude Altitude Speed Heading
2026-05-06 05:27 47.25806 11.34870 1898 ft 0 kts 171°
2026-05-06 05:45 47.25819 11.34868 1898 ft 2 kts 170°
2026-05-06 05:45 47.25834 11.34864 1898 ft 2 kts 171°
2026-05-06 05:46 47.25847 11.34860 1898 ft 1 kts 181°
2026-05-06 05:46 47.25857 11.34868 1898 ft 1 kts 244°
2026-05-06 05:46 47.25859 11.34877 1898 ft 1 kts 268°
2026-05-06 05:46 47.25859 11.34884 1898 ft 0 kts 260°
2026-05-06 05:48 47.25857 11.34866 1898 ft 4 kts 260°
2026-05-06 05:48 47.25848 11.34790 1899 ft 10 kts 263°
2026-05-06 05:49 47.25832 11.34644 1900 ft 18 kts 259°
2026-05-06 05:49 47.25809 11.34442 1903 ft 20 kts 262°
2026-05-06 05:49 47.25789 11.34236 1905 ft 19 kts 261°
2026-05-06 05:49 47.25771 11.34055 1908 ft 9 kts 266°
2026-05-06 05:50 47.25771 11.34051 1909 ft 0 kts 266°
2026-05-06 05:50 47.25771 11.34042 1909 ft 2 kts 266°
2026-05-06 05:51 47.25774 11.33995 1910 ft 6 kts 281°
2026-05-06 05:51 47.25791 11.33924 1913 ft 8 kts 295°
2026-05-06 05:51 47.25830 11.33834 1916 ft 12 kts 306°
2026-05-06 05:51 47.25888 11.33717 1919 ft 16 kts 306°
2026-05-06 05:52 47.25930 11.33572 1922 ft 14 kts 262°
2026-05-06 05:52 47.25913 11.33416 1925 ft 19 kts 259°
2026-05-06 05:52 47.25892 11.33237 1923 ft 8 kts 250°
2026-05-06 05:52 47.25845 11.33172 1922 ft 9 kts 229°
2026-05-06 05:53 47.25863 11.33099 1920 ft 9 kts 343°
2026-05-06 05:53 47.25887 11.33141 1921 ft 0 kts 80°
2026-05-06 05:55 47.25887 11.33142 1921 ft 1 kts 80°
2026-05-06 05:55 47.25914 11.33427 1925 ft 66 kts 81°
2026-05-06 05:55 47.26032 11.34516 1903 ft 145 kts 81°
2026-05-06 05:55 47.26307 11.36004 2587 ft 151 kts 72°
2026-05-06 05:56 47.26773 11.37275 3493 ft 147 kts 55°
2026-05-06 05:56 47.27262 11.38659 3958 ft 159 kts 75°
2026-05-06 05:56 47.27382 11.40271 4605 ft 159 kts 92°
2026-05-06 05:56 47.27294 11.41884 5236 ft 161 kts 97°
2026-05-06 05:57 47.27171 11.43500 5825 ft 163 kts 97°
2026-05-06 05:57 47.27034 11.45134 6425 ft 164 kts 103°
2026-05-06 05:57 47.26421 11.46489 6962 ft 168 kts 150°
2026-05-06 05:57 47.25250 11.46672 7411 ft 183 kts 198°
2026-05-06 05:58 47.24231 11.45545 8037 ft 192 kts 231°
2026-05-06 05:58 47.23675 11.43686 8529 ft 208 kts 251°
2026-05-06 05:58 47.23298 11.41580 9072 ft 223 kts 254°
2026-05-06 05:58 47.23173 11.39238 9588 ft 241 kts 275°
2026-05-06 05:59 47.23640 11.36800 10112 ft 258 kts 292°
2026-05-06 05:59 47.24603 11.34495 10561 ft 278 kts 305°
2026-05-06 05:59 47.25815 11.32217 11192 ft 290 kts 307°
2026-05-06 05:59 47.27116 11.29820 11686 ft 306 kts 306°
2026-05-06 06:00 47.28425 11.27342 12221 ft 318 kts 305°
2026-05-06 06:00 47.29802 11.24668 12730 ft 334 kts 304°
2026-05-06 06:00 47.31211 11.21896 13234 ft 349 kts 304°
2026-05-06 06:00 47.32682 11.18986 13833 ft 360 kts 304°
2026-05-06 06:01 47.34190 11.16007 14709 ft 364 kts 303°
2026-05-06 06:01 47.35685 11.13058 15560 ft 366 kts 303°
2026-05-06 06:01 47.37218 11.10025 16199 ft 375 kts 303°
2026-05-06 06:01 47.38775 11.06938 16938 ft 381 kts 302°
2026-05-06 06:02 47.40365 11.03785 17786 ft 383 kts 302°
2026-05-06 06:02 47.41947 11.00640 18560 ft 387 kts 302°
2026-05-06 06:02 47.43556 10.97432 19253 ft 392 kts 301°
2026-05-06 06:02 47.45170 10.94215 19984 ft 396 kts 301°
2026-05-06 06:03 47.46812 10.90939 20647 ft 401 kts 301°
2026-05-06 06:03 47.48466 10.87635 21284 ft 406 kts 301°
2026-05-06 06:03 47.50154 10.84261 21997 ft 409 kts 300°
2026-05-06 06:03 47.51824 10.80919 22622 ft 413 kts 300°
2026-05-06 06:04 47.53553 10.77453 23283 ft 417 kts 300°
2026-05-06 06:04 47.55260 10.74033 23915 ft 421 kts 300°
2026-05-06 06:04 47.56992 10.70553 24543 ft 424 kts 300°
2026-05-06 06:04 47.58740 10.67037 25162 ft 427 kts 300°
2026-05-06 06:05 47.60507 10.63481 25794 ft 430 kts 300°
2026-05-06 06:05 47.62278 10.59912 26404 ft 432 kts 300°
2026-05-06 06:05 47.64059 10.56315 26915 ft 436 kts 300°
2026-05-06 06:05 47.65850 10.52693 27441 ft 440 kts 300°
2026-05-06 06:06 47.67676 10.48994 28024 ft 442 kts 300°
2026-05-06 06:06 47.69486 10.45325 28552 ft 445 kts 300°
2026-05-06 06:06 47.71323 10.41608 29102 ft 448 kts 300°
2026-05-06 06:06 47.73216 10.37969 29551 ft 454 kts 303°
2026-05-06 06:07 47.75310 10.34433 30033 ft 461 kts 307°
2026-05-06 06:07 47.77630 10.31100 30522 ft 467 kts 311°
2026-05-06 06:07 47.80062 10.27949 31195 ft 466 kts 313°
2026-05-06 06:07 47.82545 10.24901 31787 ft 464 kts 314°
2026-05-06 06:08 47.85064 10.21884 32333 ft 463 kts 315°
2026-05-06 06:08 47.87561 10.18912 32855 ft 461 kts 315°
2026-05-06 06:08 47.90047 10.15947 33290 ft 461 kts 315°
2026-05-06 06:08 47.92532 10.12968 33731 ft 460 kts 315°
2026-05-06 06:09 47.95006 10.09983 34171 ft 458 kts 315°
2026-05-06 06:09 47.97464 10.07001 34592 ft 456 kts 315°
2026-05-06 06:09 47.99891 10.04039 34705 ft 462 kts 315°
2026-05-06 06:09 48.02372 10.00997 34665 ft 459 kts 315°
2026-05-06 06:10 48.07274 9.94972 34661 ft 457 kts 315°
2026-05-06 06:10 48.12173 9.88919 34486 ft 453 kts 315°
2026-05-06 06:11 48.14590 9.85931 34012 ft 449 kts 315°
2026-05-06 06:11 48.16965 9.82989 33824 ft 448 kts 315°
2026-05-06 06:11 48.21841 9.76913 33807 ft 462 kts 315°
2026-05-06 06:12 48.26776 9.70755 33989 ft 465 kts 315°
2026-05-06 06:12 48.29241 9.67681 34467 ft 461 kts 315°
2026-05-06 06:12 48.31675 9.64645 34885 ft 458 kts 315°
2026-05-06 06:13 48.34121 9.61586 35143 ft 458 kts 315°
2026-05-06 06:13 48.36548 9.58526 35332 ft 459 kts 315°
2026-05-06 06:13 48.38987 9.55416 35859 ft 459 kts 315°
2026-05-06 06:13 48.41391 9.52337 36217 ft 458 kts 315°
2026-05-06 06:14 48.43812 9.49225 36505 ft 458 kts 315°
2026-05-06 06:14 48.46229 9.46113 36773 ft 458 kts 315°
2026-05-06 06:14 48.48624 9.43027 37026 ft 459 kts 315°
2026-05-06 06:14 48.51054 9.39893 37272 ft 460 kts 315°
2026-05-06 06:15 48.53444 9.36809 37502 ft 460 kts 315°
2026-05-06 06:15 48.54543 9.35391 37606 ft 461 kts 315°
2026-05-06 06:15 48.56965 9.32264 37777 ft 463 kts 315°
2026-05-06 06:15 48.59407 9.29232 37790 ft 468 kts 317°
2026-05-06 06:16 48.64914 9.23797 37796 ft 482 kts 328°
2026-05-06 06:16 48.70959 9.19470 37591 ft 480 kts 333°
2026-05-06 06:17 48.74000 9.17501 37077 ft 479 kts 333°
2026-05-06 06:17 48.77044 9.15564 36369 ft 482 kts 333°
2026-05-06 06:17 48.80087 9.13628 35703 ft 483 kts 333°
2026-05-06 06:17 48.83134 9.11674 34970 ft 486 kts 333°
2026-05-06 06:18 48.86243 9.09663 34282 ft 486 kts 332°
2026-05-06 06:18 48.89325 9.07649 33668 ft 487 kts 332°
2026-05-06 06:18 48.92426 9.05574 33020 ft 489 kts 331°
2026-05-06 06:18 48.95454 9.03504 32233 ft 491 kts 330°
2026-05-06 06:19 48.98550 9.01358 31424 ft 494 kts 330°
2026-05-06 06:19 49.01701 8.99157 30394 ft 498 kts 330°
2026-05-06 06:19 49.04774 8.97005 29849 ft 489 kts 330°
2026-05-06 06:19 49.07811 8.94884 29797 ft 487 kts 330°
2026-05-06 06:20 49.14035 8.90510 29793 ft 496 kts 330°